« Back
NWS Peachtree City, Ga » Text Product » GA Regional Weather Roundup


Printer-friendly Version
Current Version              Previous Versions:   1  2  3  4  5  6  7  8  9  

Regional Weather Roundup

899
ASUS42 KFFC 270003
RWRGA
WEATHER ROUNDUP FOR GEORGIA
NATIONAL WEATHER SERVICE PEACHTREE CITY GA
700 PM EST WED NOV 26 2014

NOTE: "FAIR" INDICATES FEW OR NO CLOUDS BELOW 12,000 FEET WITH NO
SIGNIFICANT WEATHER AND/OR OBSTRUCTIONS TO VISIBILITY.

* = USE WITH CAUTION. THE STATIONS MARKED WITH AN ASTERISK MAY NOT
REPORT WEATHER SUCH AS PRECIPITATION, FOG, OR THUNDER AND ARE NOT
QUALITY CONTROLLED BY NWS.

THE REMARK "TC" DENOTES TEMPERATURE READING IN DEGREES CELSIUS.

GAZ001>058-270100-
NORTH GEORGIA

CITY           SKY/WX    TMP DP  RH WIND       PRES   REMARKS
ATLANTA        PTCLDY    48  24  39 SW3       30.08R
6HR MIN TEMP:  48; 6HR MAX TEMP:  57;

ATHENS         PTCLDY    47  23  38 W5        30.07R
6HR MIN TEMP:  47; 6HR MAX TEMP:  58;

CHAMBLEE       PTCLDY    47  24  40 SW3       30.08R
6HR MIN TEMP:  45; 6HR MAX TEMP:  55;

PEACHTREE CITY CLEAR     41  32  70 CALM      30.10R
6HR MIN TEMP:  41; 6HR MAX TEMP:  57;

ROME           CLOUDY    47  33  58 CALM      30.04F
6HR MIN TEMP:  47; 6HR MAX TEMP:  56;

WEST ATLANTA   PTCLDY    47  28  47 CALM      30.08R
6HR MIN TEMP:  46; 6HR MAX TEMP:  56;

GAINESVILLE    PTCLDY    46  25  43 SW6       30.07S
6HR MIN TEMP:  44; 6HR MAX TEMP:  54;

CARTERSVILLE   CLOUDY    42  32  67 CALM      30.07F
6HR MIN TEMP:  42; 6HR MAX TEMP:  55;



CITY           SKY/WX    TMP DP  RH WIND       PRES   REMARKS
DALTON*        MOCLDY    43  32  65 CALM      30.05F
LAWRENCEVILLE* MOCLDY    48  19  32 W5        30.06S
KENNESAW*      MOCLDY    48  25  40 W7        30.09S
$$

GAZ059>098-102>109-270100-
CENTRAL GEORGIA

CITY           SKY/WX    TMP DP  RH WIND       PRES   REMARKS
AUGUSTA-BUSH   CLEAR     42  36  79 SW6       30.07R
6HR MIN TEMP:  42; 6HR MAX TEMP:  62;

AUGUSTA-DANIEL CLEAR     51  33  50 CALM      30.07R
6HR MIN TEMP:  51; 6HR MAX TEMP:  61;

COLUMBUS       CLEAR     51  29  42 W5        30.12R
6HR MIN TEMP:  51; 6HR MAX TEMP:  60;

MACON          CLEAR     44  32  62 W3        30.11R
6HR MIN TEMP:  44; 6HR MAX TEMP:  60;

ROBINS AFB     CLEAR     47  34  60 SW3       30.11R


CITY           SKY/WX    TMP DP  RH WIND       PRES   REMARKS
LAGRANGE*      CLEAR     45  35  66 CALM      30.08F
SYLVANIA*      CLEAR     49  41  74 CALM      30.11R
MILLEDGEVILLE* CLEAR     43  36  75 CALM      30.10R
$$

GAZ099>101-110>166-270100-
SOUTH GEORGIA

CITY           SKY/WX    TMP DP  RH WIND       PRES   REMARKS
SAVANNAH       CLEAR     52  39  61 SW3       30.11R
6HR MIN TEMP:  50; 6HR MAX TEMP:  62;

VALDOSTA       CLEAR     45  40  82 S3        30.16S
6HR MIN TEMP:  44; 6HR MAX TEMP:  61;

ALMA           CLEAR     46  37  71 W3        30.14R
6HR MIN TEMP:  46; 6HR MAX TEMP:  61;

ST SIMONS      CLEAR     52  41  66 W6        30.15R
6HR MIN TEMP:  51; 6HR MAX TEMP:  62;

FT STEWART     CLEAR     48  43  83 CALM      30.11R
ALBANY         CLEAR     45  38  76 CALM      30.18R
HUNTER AFB     CLEAR     49  42  79 SW2       30.10R
MOODY AFB      CLEAR     45  38  74 S2        30.15R
BRUNSWICK      CLEAR     48  43  81 CALM      30.15R


CITY           SKY/WX    TMP DP  RH WIND       PRES   REMARKS
BAINBRIDGE*    CLEAR     46  43  87 SW5       30.18R
MOULTRIE*      CLEAR     46  45  93 CALM      30.16S
VIDALIA*       CLEAR     48  36  61 SW3       30.12R
WAYCROSS*      CLEAR     52  41  64 W5        30.15R
DOUGLAS*       CLEAR     50  36  57 CALM      30.15S
$$



USA.gov is the U.S. government's official web portal to all federal, state and local government web resources and services.